Regional Weather Roundup
Issued by NWS State College, PA

Home | Current Version | Previous Version | Text Only | Print | Product List | Glossary On
Versions: 1 2 3 4 5 6 7 8 9 10 11 12 13 14 15 16 17 18 19 20 21 22 23 24 25 26 27 28 29 30 31 32 33 34 35 36 37 38 39 40 41 42 43 44 45 46 47 48 49 50
902
ASUS41 KCTP 270910
RWRCTP

REGIONAL WEATHER ROUNDUP
NATIONAL WEATHER SERVICE STATE COLLEGE PA
500 AM EDT THU APR 27 2017

Note: "fair" indicates few or no clouds below 12,000 feet with no
significant weather and/or obstructions to visibility.

* = STATION THAT DOES NOT REPORT PRECIPITATION /E.G. RAIN...SNOW...ETC/
    THUNDER OR FOG.

PAZ002>004-007>009-013>016-020>023-029>032-271000-
WESTERN PENNSYLVANIA

CITY           SKY/WX    TMP DP  RH WIND       PRES   REMARKS
ERIE           CLEAR     65  55  70 S15G23    29.63R
MEADVILLE      CLEAR     62  56  80 VRB7      29.68S
FRANKLIN*      CLEAR     55  52  88 SE8       29.72S
NEW CASTLE     FAIR      62  56  80 SE6       29.68F
BEAVER COUNTY  NOT AVBL
BUTLER*        PTCLDY    61  54  77 SE5       29.72R
PITTSBURGH INT PTCLDY    61  57  87 SE5       29.69S
PITTSBURGH     CLEAR     59  54  83 S6        29.70S
INDIANA*       CLEAR     61  57  88 E5        29.76S
LATROBE        CLEAR     55  55 100 CALM      29.73R
WASHINGTON CO* CLEAR     55  52  88 CALM      29.71F
$$

PAZ004>006-010>012-017>019-024>028-033>037-041-042-045-046-049>053-271000-
CENTRAL PENNSYLVANIA

CITY           SKY/WX    TMP DP  RH WIND       PRES   REMARKS
BRADFORD       CLEAR     52  52 100 SE6       29.77R
DUBOIS         CLEAR     58  54  86 SE12      29.75R
CLEARFIELD     CLEAR     52  52 100 NE5       29.78S
JOHNSTOWN      CLEAR     57  55  93 S9        29.78S
ALTOONA        CLEAR     57  56  96 S5        29.80R
STATE COLLEGE  MOCLDY    58  56  91 SW3       29.80R
WILLIAMSPORT   CLOUDY    61  56  83 E5        29.79S
SELINSGROVE    FOG       50  50 100 CALM      29.82S VSB 3/4
FT INDIANTOWN  CLOUDY    53  53 100 CALM      29.84R FOG
CAPITAL CITY   FOG       56  54  93 E5        29.83R VSB 1/4
HARRISBURG     FOG       55  55 100 SE5       29.82S VSB 1/8
YORK           CLOUDY    50  50 100 CALM      29.82F
$$

PAZ038>040-043-044-047-048-054-055-060>062-067>071-271000-
EASTERN PENNSYLVANIA

CITY           SKY/WX    TMP DP  RH WIND       PRES   REMARKS
SCRANTON       CLOUDY    57  55  93 CALM      29.83R
MOUNT POCONO   CLOUDY    54  54 100 S3        29.85S FOG
ALLENTOWN      CLOUDY    62  55  77 CALM      29.84S
QUAKERTOWN*    CLOUDY    59  57  94 CALM      29.85S
READING        CLOUDY    61  59  93 S5        29.83S
LANCASTER      FOG       53  53 100 CALM      29.84R VSB 1/4
COATESVILLE    CLOUDY    59  57  94 CALM      29.86S FOG
POTTSTOWN      CLOUDY    58  56  93 CALM      29.86R
BLUE BELL      CLOUDY    57  57 100 CALM      29.87R
DOYLESTOWN     CLOUDY    59  57  93 CALM      29.84S
WILLOW GROVE   NOT AVBL
NORTH PHILA    CLOUDY    61  58  90 SE3       29.87R
PHILADELPHIA   NOT AVBL
$$




USA.gov is the U.S. government's official web portal to all federal, state and local government web resources and services.